Stations météo

réclame
Mon MeteoGroup
Alencon, France (7139): Température de l'air & dewpoint: 17.09.2017 21:00:00 - 23.09.2017 21:00:00 (CEST)Alencon, France (7139): Température de l'air 5cm: 17.09.2017 21:00:00 - 23.09.2017 21:00:00 (CEST)Alencon, France (7139): Température de l'air -20cm & Température de l'air -100cm: 17.09.2017 21:00:00 - 23.09.2017 21:00:00 (CEST)Alencon, France (7139): Vitesse du vent & gusts: 17.09.2017 21:00:00 - 23.09.2017 21:00:00 (CEST)Alencon, France (7139): Direction du vent: 17.09.2017 21:00:00 - 23.09.2017 21:00:00 (CEST)Alencon, France (7139): reduced air pressure: 17.09.2017 21:00:00 - 23.09.2017 21:00:00 (CEST)Alencon, France (7139): visibility: 17.09.2017 21:00:00 - 23.09.2017 21:00:00 (CEST)Alencon, France (7139): Ensoleillement: 17.09.2017 21:00:00 - 23.09.2017 21:00:00 (CEST)Alencon, France (7139): Quantités de précipitations: 17.09.2017 21:00:00 - 23.09.2017 21:00:00 (CEST)
Date & Time tt [°C] td [°C] tt 5cm [°C] tt -20cm [°C] tt -100cm [°C] ff [km/h] ff [knt] fx [km/h] fx [knt] dd ppp [hPa] vv [km] sd [min] rr [mm]
23.09.2017 21:00:00 12,4 9,2 7,7 15,1 15,3 4 2 5 3 NE 1020,6 20 0 0,0
23.09.2017 20:00:00 16,1 9,7 10,3 15,0 15,3 0 0 14 7 N 1020,1 20 7 0,0
23.09.2017 19:00:00 19,3 8,9 18,4 14,8 15,3 7 4 16 9 SE 1019,7 20 60 0,0
23.09.2017 18:00:00 20,1 7,8 22,1 14,7 15,3 10 5 16 9 ESE 1019,6 20 60 0,0
23.09.2017 17:00:00 20,4 7,7 24,4 14,5 15,3 10 5 19 10 SE 1020,0 20 60 0,0
23.09.2017 16:00:00 20,1 7,8 24,3 14,3 15,3 10 5 18 10 SE 1020,5 20 60 0,0
23.09.2017 15:00:00 19,7 8,1 26,2 14,2 15,3 8 4 16 9 SE 1021,3 20 60 0,0
23.09.2017 14:00:00 19,1 8,1 25,8 14,2 15,3 8 5 17 9 SE 1022,0 18 60 0,0
23.09.2017 13:00:00 17,5 10,1 27,3 14,1 15,3 6 3 12 7 ENE 1022,3 15 60 0,0
23.09.2017 12:00:00 14,8 11,0 19,2 14,1 15,3 2 1 9 5 N 1023,0 20 53 0,0
23.09.2017 11:00:00 11,5 9,7 13,2 14,2 15,3 5 3 9 5 NNE 1023,3 0,6 22 0,0
23.09.2017 10:00:00 9,7 9,4 11,6 14,3 15,3 6 3 9 5 NE 1023,3 13 22 0,0
23.09.2017 09:00:00 6,7 6,6 1,7 14,4 15,3 0 0 3 2 N 1023,3 19 50 0,0
23.09.2017 08:00:00 4,8 4,5 0,3 14,5 15,3 0 0 3 2 N 1023,7 16 0 0,0
23.09.2017 07:00:00 5,0 4,7 -0,1 14,6 15,3 0 0 2 1 N 1023,8 3,1 0 0,0
23.09.2017 06:00:00 4,8 4,4 0,1 14,8 15,3 0 0 2 1 N 1023,9 19 0 0,0
23.09.2017 05:00:00 5,0 4,6 0,7 14,9 15,3 0 0 0 0 N 1024,3 20 0 0,2
23.09.2017 04:00:00 6,3 6,0 0,6 15,0 15,3 0 0 4 2 N 1024,4 20 0 0,0
23.09.2017 03:00:00 6,1 5,7 1,1 15,1 15,3 0 0 3 2 N 1024,6 16 0 0,0
23.09.2017 02:00:00 7,0 6,4 1,5 15,2 15,3 0 0 5 3 N 1024,6 20 0 0,0
23.09.2017 01:00:00 7,6 7,0 1,7 15,3 15,3 4 2 8 4 N 1024,6 20 0 0,0
23.09.2017 00:00:00 8,3 7,2 3,3 15,4 15,3 0 0 4 2 N 1024,5 11 0 0,0
22.09.2017 23:00:00 8,8 7,9 3,3 15,4 15,4 0 0 6 3 N 1024,6 20 0 0,0
22.09.2017 22:00:00 10,2 8,6 3,6 15,4 15,3 3 2 4 2 WNW 1024,3 20 0 0,0
22.09.2017 21:00:00 11,7 8,4 6,0 15,4 15,3 4 2 6 3 W 1023,9 20 0 0,0
22.09.2017 20:00:00 14,6 8,5 10,4 15,3 15,3 5 3 12 7 NE 1023,2 20 5 0,0
22.09.2017 19:00:00 17,2 8,9 16,0 15,2 15,3 9 5 21 12 NNE 1022,8 6 49 0,0
22.09.2017 18:00:00 18,3 8,0 19,7 15,0 15,3 6 3 13 7 ENE 1022,4 3,9 53 0,0
22.09.2017 17:00:00 18,0 8,3 17,8 14,8 15,4 3 2 13 7 SSE 1022,4 20 21 0,0
22.09.2017 16:00:00 18,4 8,4 24,9 14,7 15,4 3 2 14 7 NNW 1022,5 16 51 0,0
22.09.2017 15:00:00 18,3 8,5 22,4 14,6 15,3 7 4 15 8 E 1022,6 20 48 0,0
22.09.2017 14:00:00 18,5 9,0 22,2 14,5 15,3 5 3 11 6 N 1022,9 20 37 0,0
22.09.2017 13:00:00 16,1 9,3 22,4 14,4 15,3 5 3 14 7 NNW 1023,2 20 38 0,0
22.09.2017 12:00:00 16,2 10,1 25,6 14,5 15,4 8 4 16 8 NNE 1022,9 20 60 0,0
22.09.2017 11:00:00 15,2 10,6 13,0 14,5 15,3 5 3 10 5 ENE 1022,6 20 60 0,0
22.09.2017 10:00:00 13,3 10,1 12,6 14,6 15,4 0 0 3 2 N 1022,7 20 60 0,0
22.09.2017 09:00:00 10,4 10,2 2,5 14,6 15,4 0 0 0 0 N 1022,5 20 43 0,0
22.09.2017 08:00:00 8,6 8,2 2,2 14,7 15,4 0 0 6 3 N 1022,3 17 0 0,0
22.09.2017 07:00:00 9,5 8,7 3,5 14,7 15,4 0 0 6 3 N 1021,6 0,5 0 0,0
22.09.2017 06:00:00 11,0 10,1 5,6 14,7 15,4 6 3 9 5 N 1021,2 20 0 0,0
22.09.2017 05:00:00 12,3 11,5 11,1 14,7 15,4 0 0 6 3 N 1021,0 20 0 0,0
22.09.2017 04:00:00 12,5 11,6 11,6 14,7 15,4 2 1 6 4 N 1021,0 17 0 0,6
22.09.2017 03:00:00 12,9 11,5 12,0 14,7 15,4 6 3 13 7 N 1021,0 7 0 0,8
22.09.2017 02:00:00 13,6 11,1 12,6 14,8 15,4 8 4 12 6 N 1020,6 20 0 0,0
22.09.2017 01:00:00 13,6 11,3 12,4 14,8 15,4 6 3 16 9 NNE 1020,3 20 0 0,0
22.09.2017 00:00:00 13,6 11,1 12,5 14,7 15,4 14 7 23 12 NNE 1019,8 20 0 0,0
21.09.2017 23:00:00 14,9 12,9 13,2 14,7 15,4 15 8 23 12 N 1019,9 20 0 0,0
21.09.2017 22:00:00 14,6 12,3 10,6 14,7 15,4 4 2 10 5 N 1019,2 20 0 0,0
21.09.2017 21:00:00 14,7 11,1 11,1 14,6 15,4 5 3 16 9 NW 1018,7 20 0 0,0
21.09.2017 20:00:00 17,2 9,6 12,1 14,6 15,4 3 1 10 5 S 1017,8 1,7 0 0,0
21.09.2017 19:00:00 18,2 9,8 17,1 14,4 15,4 8 5 19 10 SW 1017,5 18 2 0,0
21.09.2017 18:00:00 19,3 9,2 20,2 14,3 15,4 11 6 18 10 WSW 1017,1 20 43 0,0
21.09.2017 17:00:00 19,9 9,2 23,1 14,1 15,4 9 5 21 11 SSW 1016,9 20 54 0,0
21.09.2017 16:00:00 19,5 10,2 23,2 13,9 15,4 13 7 22 12 SW 1017,0 20 58 0,0
21.09.2017 15:00:00 20,1 11,0 22,7 13,8 15,4 11 6 23 12 S 1017,0 20 52 0,0
21.09.2017 14:00:00 18,8 9,0 23,1 13,7 15,4 12 6 24 13 S 1017,3 20 50 0,0
21.09.2017 13:00:00 17,8 9,9 20,7 13,7 15,4 12 6 24 13 S 1017,8 20 47 0,0
21.09.2017 12:00:00 15,5 9,6 18,8 13,7 15,4 13 7 22 12 S 1018,3 20 41 0,0
21.09.2017 11:00:00 13,8 9,8 13,9 13,7 15,4 5 3 14 7 S 1018,7 20 60 0,0
21.09.2017 10:00:00 9,9 9,3 13,2 13,8 15,5 3 2 4 2 NE 1019,0 19 53 0,0
21.09.2017 09:00:00 7,3 7,2 1,9 13,9 15,5 0 0 3 2 N 1019,0 16 52 0,0
21.09.2017 08:00:00 5,2 4,9 0,6 14,0 15,5 0 0 5 3 N 1019,1 9 0 0,0
21.09.2017 07:00:00 5,7 5,4 0,8 14,1 15,5 2 1 4 2 N 1018,8 3,3 0 0,0
21.09.2017 06:00:00 5,6 5,3 1,4 14,2 15,5 0 0 6 3 N 1019,0 7 0 0,0
21.09.2017 05:00:00 6,0 5,7 1,8 14,3 15,5 0 0 4 2 N 1019,2 6 0 0,0
21.09.2017 04:00:00 7,2 6,9 1,7 14,4 15,5 0 0 4 2 N 1019,4 6 0 0,2
21.09.2017 03:00:00 6,7 6,3 2,3 14,5 15,5 3 2 4 2 N 1019,7 7 0 0,0
21.09.2017 02:00:00 7,4 7,0 2,6 14,5 15,5 3 2 4 2 N 1019,8 8 0 0,0
21.09.2017 01:00:00 7,7 7,1 3,2 14,6 15,5 0 0 3 2 N 1019,9 16 0 0,0
21.09.2017 00:00:00 8,6 8,0 3,9 14,6 15,5 0 0 3 2 N 1020,0 3,1 0 0,0
20.09.2017 23:00:00 9,5 8,6 4,5 14,7 15,5 0 0 5 3 N 1020,1 19 0 0,0
20.09.2017 22:00:00 10,4 9,2 5,5 14,6 15,5 4 2 5 3 N 1020,3 20 0 0,0
20.09.2017 21:00:00 12,4 8,7 6,6 14,6 15,5 2 1 5 3 S 1020,1 20 0 0,0
20.09.2017 20:00:00 15,2 8,4 10,1 14,5 15,5 4 2 15 8 SSW 1020,1 20 38 0,0
20.09.2017 19:00:00 17,0 8,7 16,3 14,4 15,5 11 6 25 13 SSW 1020,2 20 54 0,0
20.09.2017 18:00:00 17,8 8,1 18,7 14,3 15,5 13 7 26 14 SSW 1020,4 20 58 0,0
20.09.2017 17:00:00 18,1 8,9 18,5 14,2 15,5 14 7 36 19 SSW 1020,8 20 42 0,0
20.09.2017 16:00:00 17,9 9,3 19,5 14,0 15,5 17 9 29 16 SSW 1021,2 20 48 0,0
20.09.2017 15:00:00 17,9 10,0 17,0 13,9 15,6 14 8 23 12 S 1021,5 20 21 0,0
20.09.2017 14:00:00 16,1 10,4 17,2 13,8 15,5 12 6 25 14 S 1022,0 20 26 0,0
20.09.2017 13:00:00 16,5 12,1 23,7 13,7 15,5 13 7 21 11 SSW 1022,5 19 60 0,0
20.09.2017 12:00:00 14,7 10,9 20,6 13,8 15,6 8 4 12 6 S 1023,1 19 60 0,0
20.09.2017 11:00:00 10,8 10,3 9,7 13,8 15,5 5 3 8 4 SSE 1023,7 18 24 0,0
20.09.2017 10:00:00 7,8 7,7 7,5 13,9 15,6 0 0 2 1 N 1023,9 19 0 0,0
20.09.2017 09:00:00 6,8 6,7 6,4 14,0 15,6 0 0 3 1 N 1023,9 20 0 0,0
20.09.2017 08:00:00 5,6 5,5 3,8 14,1 15,6 0 0 5 3 N 1023,8 15 0 0,0
20.09.2017 07:00:00 5,5 5,4 0,7 14,2 15,6 0 0 3 2 N 1023,8 10 0 0,0
20.09.2017 06:00:00 4,6 4,3 0,0 14,2 15,6 0 0 5 3 N 1024,0 0,4 0 0,0
20.09.2017 05:00:00 5,0 4,6 0,7 14,4 15,6 0 0 4 2 N 1024,1 2,1 0 0,0
20.09.2017 04:00:00 5,8 5,4 1,5 14,4 15,6 0 0 3 1 N 1024,3 19 0 0,0
20.09.2017 03:00:00 7,0 6,6 1,7 14,5 15,6 2 1 6 3 SSW 1024,6 16 0 0,0
20.09.2017 02:00:00 6,9 6,3 1,5 14,6 15,6 5 3 7 4 WNW 1024,6 20 0 0,0
20.09.2017 01:00:00 7,5 6,9 1,8 14,6 15,6 4 2 5 3 WSW 1024,6 18 0 0,0
20.09.2017 00:00:00 8,8 7,7 2,8 14,7 15,6 0 0 7 4 N 1024,7 16 0 0,0
19.09.2017 23:00:00 9,8 8,7 4,7 14,7 15,6 3 2 7 4 SW 1024,8 20 0 0,0
19.09.2017 22:00:00 10,0 8,3 5,9 14,7 15,6 3 1 5 3 SW 1024,6 20 0 0,0
19.09.2017 21:00:00 11,2 8,6 8,0 14,6 15,6 7 4 9 5 N 1024,4 20 0 0,0
19.09.2017 20:00:00 13,4 8,7 9,1 14,6 15,6 4 2 18 10 NNW 1023,5 20 3 0,0
19.09.2017 19:00:00 16,1 8,3 16,4 14,5 15,6 11 6 22 12 N 1023,0 20 54 0,0
19.09.2017 18:00:00 15,5 9,4 16,6 14,4 15,6 11 6 21 11 N 1023,0 20 29 0,0
19.09.2017 17:00:00 15,7 9,6 16,7 14,3 15,6 10 6 21 12 N 1022,9 20 1 0,0
19.09.2017 16:00:00 15,5 9,6 17,7 14,2 15,6 9 5 17 9 NNW 1022,9 20 20 0,0
19.09.2017 15:00:00 16,0 10,1 18,0 14,1 15,7 10 5 21 12 NNW 1022,9 20 21 0,0
19.09.2017 14:00:00 14,7 9,3 16,1 14,0 15,6 15 8 24 13 N 1022,8 20 15 0,0
19.09.2017 13:00:00 15,6 8,6 20,1 14,0 15,7 14 8 29 16 N 1022,7 20 46 0,0
19.09.2017 12:00:00 15,2 10,2 19,7 14,0 15,7 15 8 29 16 N 1022,3 20 55 0,0
19.09.2017 11:00:00 13,8 10,4 15,0 14,0 15,7 14 8 23 12 N 1022,2 20 44 0,0
19.09.2017 10:00:00 12,6 10,8 13,2 14,0 15,7 15 8 21 12 N 1021,7 20 30 0,0
19.09.2017 09:00:00 10,7 10,1 8,7 14,1 15,7 5 3 14 7 NNW 1021,2 18 5 0,0
19.09.2017 08:00:00 10,3 9,5 9,4 14,1 15,7 8 5 22 12 W 1021,0 20 0 0,2
19.09.2017 07:00:00 10,4 9,3 9,2 14,1 15,7 15 8 21 11 WNW 1020,4 20 0 0,0
19.09.2017 06:00:00 10,6 9,4 9,6 14,2 15,7 13 7 18 10 W 1020,2 20 0 0,0
19.09.2017 05:00:00 10,8 9,4 9,2 14,2 15,7 12 6 24 13 WNW 1020,2 9 0 0,4
19.09.2017 04:00:00 10,8 9,9 9,8 14,3 15,7 6 4 16 8 WSW 1020,5 14 0 1,2
19.09.2017 03:00:00 10,6 9,8 8,2 14,3 15,7 11 6 15 8 W 1020,8 17 0 0,0
19.09.2017 02:00:00 9,8 9,0 5,6 14,4 15,7 6 3 12 7 W 1020,9 20 0 0,0
19.09.2017 01:00:00 9,5 8,7 5,8 14,4 15,8 5 3 12 7 W 1021,1 19 0 0,0
19.09.2017 00:00:00 9,9 9,3 3,6 14,4 15,7 10 5 14 8 W 1021,4 17 0 0,0
18.09.2017 23:00:00 9,2 8,4 3,8 14,5 15,7 7 4 12 7 W 1021,0 19 0 0,0
18.09.2017 22:00:00 10,1 9,0 5,0 14,4 15,7 6 3 14 7 NW 1021,2 20 0 0,0
18.09.2017 21:00:00 11,1 9,4 7,1 14,4 15,8 8 5 13 7 NW 1020,7 20 0 0,0
18.09.2017 20:00:00 12,4 10,3 9,4 14,4 15,8 8 4 13 7 W 1019,9 20 42 0,0
18.09.2017 19:00:00 13,7 10,7 11,9 14,3 15,8 8 5 14 8 NW 1019,7 20 49 0,0
18.09.2017 18:00:00 12,3 9,5 11,9 14,2 15,8 9 5 26 14 WNW 1019,3 20 4 1,2
18.09.2017 17:00:00 16,2 11,4 12,1 14,1 15,8 14 7 23 12 WNW 1018,8 20 41 0,2
18.09.2017 16:00:00 12,4 10,3 11,3 14,0 15,8 13 7 41 22 W 1019,3 20 1 1,2
18.09.2017 15:00:00 16,3 8,0 19,9 13,8 15,8 14 8 23 13 NW 1018,5 20 29 0,0
18.09.2017 14:00:00 16,3 9,7 21,5 13,8 15,8 10 6 18 10 NW 1018,4 20 35 0,0
18.09.2017 13:00:00 15,2 9,5 16,3 13,7 15,8 10 5 23 12 NNW 1018,4 20 10 0,0
18.09.2017 12:00:00 14,7 9,5 20,5 13,7 15,8 3 2 10 6 NNW 1018,4 20 43 0,0
18.09.2017 11:00:00 12,7 9,9 10,4 13,8 15,9 2 1 8 5 S 1018,6 19 60 0,0
18.09.2017 10:00:00 8,9 8,0 10,1 13,9 15,8 3 2 7 4 SSE 1018,7 18 60 0,0
18.09.2017 09:00:00 6,2 6,1 0,8 14,0 15,8 3 1 4 2 ESE 1018,5 17 52 0,0
18.09.2017 08:00:00 3,7 3,6 -0,5 14,1 15,9 0 0 7 4 N 1018,5 7 0 0,0
18.09.2017 07:00:00 4,0 3,7 0,1 14,2 15,9 2 1 4 2 NNE 1018,0 5 0 0,2
18.09.2017 06:00:00 4,7 4,4 0,2 14,3 15,9 0 0 6 4 N 1017,7 2,4 0 0,0
18.09.2017 05:00:00 4,9 4,6 0,1 14,5 15,9 0 0 4 2 N 1017,7 0,7 0 0,0
18.09.2017 04:00:00 5,5 5,2 0,9 14,5 15,9 0 0 5 3 N 1017,6 0,2 0 0,0
18.09.2017 03:00:00 6,6 6,3 1,3 14,6 15,9 0 0 11 6 N 1017,5 1,2 0 0,0
18.09.2017 02:00:00 7,2 6,9 1,3 14,7 15,9 3 2 6 3 W 1017,4 7 0 0,0
18.09.2017 01:00:00 7,3 6,9 1,9 14,7 15,9 4 2 8 4 WNW 1017,3 5 0 0,0
18.09.2017 00:00:00 8,4 8,0 2,5 14,7 15,9 3 2 6 3 WSW 1017,2 13 0 0,0
17.09.2017 23:00:00 9,6 8,7 4,4 14,7 15,9 4 2 7 4 WNW 1016,9 20 0 0,0
17.09.2017 22:00:00 10,2 9,1 6,4 14,7 15,9 4 2 11 6 W 1016,6 20 0 0,0
17.09.2017 21:00:00 10,2 8,5 5,7 14,7 15,9 9 5 11 6 WNW 1015,9 20 0 0,0

tt = Température de l'air
td = dewpoint
tt 5cm = Température de l'air 5cm
tt -20cm = Température de l'air -20cm
tt -100cm = Température de l'air -100cm
ff = Vitesse du vent
fx = gusts
dd = Direction du vent
ppp = reduced air pressure
vv = visibility
sd = Ensoleillement
rr = Quantités de précipitations

stations d'obs. à proximité